Regional Weather Roundup
Issued by NWS

Current Version | Previous Version | Text Only | Print | Product List | Glossary On
Versions: 1 2 3 4 5 6 7 8 9 10 11 12 13 14 15 16 17 18 19 20 21 22 23 24 25 26 27 28 29 30 31 32 33 34 35 36 37 38 39 40 41 42 43 44 45 46 47 48 49 50
000
ASUS45 KABQ 212110
RWRNM
WEATHER ROUNDUP FOR NEW MEXICO
NATIONAL WEATHER SERVICE ALBUQUERQUE NM
300 PM MDT TUE OCT 21 2014

NOTE: "FAIR" MEANS FEW OR NO CLOUDS BELOW 12,000 FEET AGL WITH NO
       SIGNIFICANT WEATHER OR OBSTRUCTIONS TO VISION.

      THIS PRODUCT IS RELEASED AS TWO VERSIONS.  ONE VERSION NEAR
      THE TOP OF THE HOUR CONTAINING PRELIMINARY DATA FROM ALBUQUERQUE
      AND OTHER STATIONS.  A FINAL VERSION WITH ADDITIONAL DATA IS
      ISSUED ABOUT 10 MINUTES AFTER THE HOUR.

NMZ501-503-504-510>518-212200-
NORTHWEST PLATEAU/NORTHCENTRAL MOUNTAINS

CITY           SKY/WX    TMP DP  RH WIND       PRES   REMARKS
FARMINGTON     PTSUNNY   66  43  43 E6        30.05F
LOS ALAMOS     PTSUNNY   56  45  66 S8        30.17F
SANTA FE       CLOUDY    60  43  53 CALM      30.13F
TAOS           CLOUDY    57  39  51 W7        30.17F
ANGEL FIRE     CLOUDY    54  39  56 W7        30.20F

$$
NMZ402-403-502-505>509-212200-
WESTCENTRAL MOUNTAINS/SOUTHWEST MOUNTAINS

CITY           SKY/WX    TMP DP  RH WIND       PRES   REMARKS
GALLUP         MOSUNNY   65  42  43 SW3       30.09F
GRANTS         MOSUNNY   66  39  37 S8G20     30.12F
SILVER CITY    MOSUNNY   64  46  52 SE7       30.10F

$$
NMZ407-409-411-412-212200-
SOUTHERN DESERTS

CITY           SKY/WX    TMP DP  RH WIND       PRES   REMARKS
LORDSBURG      FAIR      72  46  40 MISG      30.02F
DEMING         MOSUNNY   70  52  52 SE8       30.03F
LAS CRUCES     MOSUNNY   69  53  55 E7        30.05F
HOLLOMAN AFB   MOSUNNY   70  53  56 S5        30.03F
T OR C         PTSUNNY   65  51  60 SE5       30.06F

$$
NMZ519>523-212200-
CENTRAL VALLEYS/CENTRAL HIGHLANDS

CITY           SKY/WX    TMP DP  RH WIND       PRES   REMARKS
ALBUQUERQUE    MOSUNNY   65  44  46 W5        30.08F
DOUBLE EAGLE   PTSUNNY   64  46  52 SE5       30.11F
MORIARTY ARPT  LGT RAIN  58  47  66 CALM      30.14F
CLINES CORNERS CLOUDY    59  43  55 S8        30.15F
BELEN          MOCLDY    69  45  42 SE10      30.08F
SOCORRO        FAIR      67  50  55 SE9       30.08F

$$
NMZ524>526-539-540-212200-
SOUTHCENTRAL MOUNTAINS

CITY           SKY/WX    TMP DP  RH WIND       PRES   REMARKS
RUIDOSO        MOSUNNY   57  48  72 SE7       30.18F

$$
NMZ527>531-212200-
NORTHEAST HIGHLANDS/NORTHEAST PLAINS

CITY           SKY/WX    TMP DP  RH WIND       PRES   REMARKS
LAS VEGAS      PTSUNNY   59  43  55 S12G20    30.14F
RATON          PTSUNNY   65  43  44 S20G28    30.07F
CLAYTON        MOSUNNY   68  45  43 SW16G28   30.07F

$$
NMZ532>537-212200-
EASTCENTRAL PLAINS

CITY           SKY/WX    TMP DP  RH WIND       PRES   REMARKS
TUCUMCARI      CLOUDY    71  52  50 SW17      30.05F
CANNON AFB     MOSUNNY   72  49  43 S9        30.07F
CLOVIS AIRPORT NOT AVBL

$$
NMZ028-029-538-212200-
SOUTHEAST PLAINS

CITY           SKY/WX    TMP DP  RH WIND       PRES   REMARKS
ROSWELL        CLOUDY    66  57  72 VRB3      30.05F
CARLSBAD       PTSUNNY   69  60  73 E10       30.03F
HOBBS          PTSUNNY   64  63  94 S8        30.08F


$$



USA.gov is the U.S. government's official web portal to all federal, state and local government web resources and services.